Location: Celina Division
(33.3022°N, 96.7580°W)
Time: 18:58:02
(UTC+00:00)

H-2A R/B (2) - Pass Details

Date: 04 July 2022
Orbit: 428 x 34396 km, 28.9° (Epoch: 07 August)

Event Time Altitude Azimuth Distance (km) Brightness Sun altitude
Rises 06:16:05 0° 117° (ESE) 39,400 10.4 -33.7°
Reaches altitude 10° 07:33:25 10° 119° (ESE) 38,986 10.5 -31.9°
Maximum altitude 10:33:40 28° 116° (ESE) 22,882 9.8 -9.5°
Drops below altitude 10° 11:33:55 10° 88° (E) 12,237 9.5 1.2°
Sets 11:42:04 0° 81° (E) 11,056 9.8 2.8°
